Weather History for KAFP - March, 2013

Change the Weather History Date:

Sunday, March 31, 2013

  Actual Average (KCLT) Record (KCLT)
Temperature  
Mean Temperature 61 °F 55 °F  
Max Temperature 73 °F 68 °F 86 °F (1986)
Min Temperature 49 °F 43 °F 21 °F (1964)
Degree Days  
Heating Degree Days 4 10  
Month to date heating degree days 434  
Since 1 July heating degree days 3132  
Cooling Degree Days 0 0  
Month to date cooling degree days 5  
Year to date cooling degree days 5  
Growing Degree Days 11 (Base 50)    
Moisture  
Dew Point 50 °F    
Average Humidity 71    
Maximum Humidity 97    
Minimum Humidity 40    
Precipitation  
Precipitation 0.15 in 0.12 in 2.21 in (1973)
Month to date precipitation 4.01  
Year to date precipitation 10.74  
Snow  
Snow 0.00 in 0.00 in 1.90 in (1915)
Month to date snowfall 0.6  
Since 1 July snowfall 4.3  
Snow Depth -    
Sea Level Pressure  
Sea Level Pressure 29.92 in    
Wind  
Wind Speed 6 mph (South)    
Max Wind Speed 15 mph    
Max Gust Speed 21 mph    
Visibility 9 miles    
Events Rain    
T = Trace of Precipitation, MM = Missing Value Source: NWS Daily Summary

Daily Weather History Graph

Daily Weather History Graph

Search for Another Location

Airport or City:

Trip Planner

Search our weather history database for the weather conditions in past years. The results will help you decide how hot, cold, wet, or windy it might be!

Date:

Astronomy

Mar. 31, 2013 Rise Set
Actual Time 7:08 AM EDT 7:41 PM EDT
Civil Twilight 6:42 AM EDT 8:06 PM EDT
Nautical Twilight 6:12 AM EDT 8:36 PM EDT
Astronomical Twilight 5:42 AM EDT 9:07 PM EDT
Moon No Moon Rise 10:04 AM EDT (3/31)
Length of Visible Light 13h 23m
Length of Day
12h 32m
Waning Gibbous, 78% of the Moon is Illuminated
Mar 31
Waning Gibbous
Apr 3
Last Quarter
Apr 10
New
Apr 18
First Quarter
Apr 25
Full

Hourly Weather History & Observations

Time (EDT) Temp. Dew Point Humidity Pressure Visibility Wind Dir Wind Speed Gust Speed Precip Events Conditions
12:15 AM 52.7 °F 46.4 °F 79% 30.09 in 10.0 mi SE 8.1 mph - N/A   Clear
12:35 AM 52.0 °F 46.2 °F 81% 30.08 in 10.0 mi SE 6.9 mph - N/A   Clear
12:55 AM 51.6 °F 46.0 °F 81% 30.07 in 10.0 mi SE 6.9 mph - N/A   Scattered Clouds
1:15 AM 51.8 °F 45.9 °F 80% 30.06 in 10.0 mi ESE 5.8 mph - N/A   Scattered Clouds
1:35 AM 52.0 °F 46.0 °F 80% 30.06 in 10.0 mi SE 6.9 mph - N/A   Scattered Clouds
1:55 AM 52.3 °F 45.9 °F 79% 30.05 in 10.0 mi SE 6.9 mph - N/A   Mostly Cloudy
2:15 AM 52.3 °F 45.9 °F 79% 30.04 in 10.0 mi ESE 5.8 mph - N/A   Overcast
2:35 AM 52.2 °F 45.7 °F 79% 30.04 in 10.0 mi ESE 3.5 mph - N/A   Overcast
2:55 AM 52.0 °F 45.7 °F 79% 30.03 in 10.0 mi SE 3.5 mph - N/A   Overcast
3:15 AM 52.2 °F 45.5 °F 78% 30.02 in 10.0 mi East 3.5 mph - N/A   Overcast
3:35 AM 52.0 °F 45.7 °F 79% 30.00 in 10.0 mi ESE 4.6 mph - N/A   Overcast
3:55 AM 52.2 °F 45.5 °F 78% 30.00 in 10.0 mi SSE 3.5 mph - N/A   Overcast
4:15 AM 51.6 °F 46.2 °F 82% 30.01 in 10.0 mi South 4.6 mph - N/A Rain Rain
4:35 AM 51.1 °F 46.6 °F 85% 30.00 in 7.0 mi Calm Calm - N/A Rain Rain
4:55 AM 50.2 °F 47.7 °F 91% 30.01 in 5.0 mi Calm Calm - 0.02 in Rain Rain
5:15 AM 50.0 °F 48.2 °F 94% 30.00 in 1.2 mi Calm Calm - 0.08 in Rain Heavy Rain
5:35 AM 49.6 °F 48.2 °F 95% 29.98 in 4.0 mi Calm Calm - 0.10 in Rain Rain
5:55 AM 49.5 °F 48.4 °F 96% 29.98 in 5.0 mi Calm Calm - 0.11 in Rain Rain
6:15 AM 49.5 °F 48.6 °F 97% 29.98 in 4.0 mi ESE 3.5 mph - 0.01 in Rain Light Rain
6:35 AM 49.5 °F 48.6 °F 97% 29.98 in 7.0 mi Calm Calm - 0.01 in   Light Drizzle
6:55 AM 49.8 °F 48.2 °F 94% 29.97 in 5.0 mi SE 3.5 mph - 0.01 in Rain Light Rain
7:15 AM 50.0 °F 48.4 °F 94% 29.97 in 7.0 mi South 3.5 mph - N/A   Drizzle
7:35 AM 50.5 °F 48.6 °F 93% 29.97 in 7.0 mi SSE 5.8 mph - N/A Rain Rain
7:55 AM 50.9 °F 48.9 °F 93% 29.96 in 7.0 mi SSE 5.8 mph - 0.01 in Rain Light Rain
8:15 AM 51.3 °F 49.1 °F 92% 29.96 in 7.0 mi South 4.6 mph - N/A   Scattered Clouds
8:35 AM 52.5 °F 50.0 °F 91% 29.96 in 10.0 mi South 6.9 mph - N/A   Mostly Cloudy
8:55 AM 53.6 °F 50.4 °F 89% 29.95 in 10.0 mi SSE 6.9 mph - N/A   Overcast
9:15 AM 54.1 °F 50.9 °F 89% 29.95 in 10.0 mi South 5.8 mph - N/A   Overcast
9:35 AM 55.2 °F 51.3 °F 87% 29.94 in 10.0 mi South 6.9 mph - N/A   Overcast
9:55 AM 57.6 °F 52.9 °F 84% 29.93 in 10.0 mi South 6.9 mph - N/A   Mostly Cloudy
10:15 AM 59.5 °F 53.4 °F 80% 29.93 in 10.0 mi SSW 8.1 mph - N/A   Overcast
10:35 AM 62.2 °F 54.1 °F 75% 29.93 in 10.0 mi SSW 9.2 mph - N/A   Overcast
10:55 AM 61.2 °F 53.2 °F 75% 29.93 in 10.0 mi SSW 11.5 mph 18.4 mph N/A   Overcast
11:15 AM 63.3 °F 54.7 °F 73% 29.93 in 10.0 mi SW 8.1 mph - N/A   Overcast
11:35 AM 64.0 °F 54.7 °F 72% 29.92 in 10.0 mi SSW 11.5 mph 17.3 mph N/A   Overcast
11:55 AM 65.3 °F 55.0 °F 69% 29.92 in 10.0 mi SSW 8.1 mph 19.6 mph N/A   Overcast
12:15 PM 65.3 °F 54.5 °F 68% 29.92 in 10.0 mi SW 10.4 mph 19.6 mph N/A   Overcast
12:35 PM 65.5 °F 54.9 °F 68% 29.91 in 10.0 mi SSW 8.1 mph - N/A   Overcast
12:55 PM 66.4 °F 54.9 °F 66% 29.90 in 10.0 mi SW 8.1 mph - N/A   Overcast
1:15 PM 67.1 °F 54.5 °F 64% 29.89 in 10.0 mi SW 8.1 mph - N/A   Overcast
1:35 PM 66.6 °F 54.3 °F 65% 29.88 in 10.0 mi SSW 12.7 mph 17.3 mph N/A   Overcast
1:55 PM 69.3 °F 55.4 °F 61% 29.88 in 10.0 mi SSW 6.9 mph - N/A   Overcast
2:15 PM 69.1 °F 54.0 °F 58% 29.88 in 10.0 mi SW 8.1 mph - N/A   Mostly Cloudy
2:35 PM 69.8 °F 54.0 °F 57% 29.86 in 10.0 mi SSW 10.4 mph 19.6 mph N/A   Scattered Clouds
2:55 PM 70.3 °F 52.3 °F 53% 29.85 in 10.0 mi SSW 10.4 mph 17.3 mph N/A   Clear
3:15 PM 71.6 °F 50.9 °F 48% 29.85 in 10.0 mi SSW 15.0 mph 20.7 mph N/A   Clear
3:35 PM 71.8 °F 50.2 °F 46% 29.84 in 10.0 mi SW 9.2 mph 20.7 mph N/A   Clear
3:55 PM 73.0 °F 50.4 °F 45% 29.84 in 10.0 mi WSW 8.1 mph 17.3 mph N/A   Scattered Clouds
4:15 PM 72.9 °F 50.2 °F 45% 29.84 in 10.0 mi SW 6.9 mph - N/A   Mostly Cloudy
4:35 PM 71.8 °F 48.4 °F 43% 29.83 in 10.0 mi SW 11.5 mph 19.6 mph N/A   Mostly Cloudy
4:55 PM 72.5 °F 48.2 °F 42% 29.83 in 10.0 mi SW 6.9 mph - N/A   Overcast
5:15 PM 73.8 °F 47.8 °F 40% 29.82 in 10.0 mi SW 10.4 mph - N/A   Mostly Cloudy
5:35 PM 72.9 °F 47.3 °F 40% 29.82 in 10.0 mi SSW 13.8 mph 19.6 mph N/A   Scattered Clouds
5:55 PM 72.5 °F 46.8 °F 40% 29.81 in 10.0 mi SW 9.2 mph 19.6 mph N/A   Clear
6:15 PM 71.4 °F 47.3 °F 42% 29.82 in 10.0 mi SSW 13.8 mph 20.7 mph N/A   Scattered Clouds
6:35 PM 70.7 °F 47.8 °F 44% 29.83 in 10.0 mi SW 9.2 mph - N/A   Mostly Cloudy
6:55 PM 69.8 °F 48.7 °F 47% 29.83 in 10.0 mi SSW 8.1 mph - N/A   Overcast
7:15 PM 69.1 °F 50.0 °F 51% 29.84 in 10.0 mi SSW 8.1 mph 16.1 mph N/A   Overcast
7:35 PM 68.4 °F 50.7 °F 53% 29.83 in 10.0 mi SSW 10.4 mph - N/A   Overcast
7:55 PM 68.2 °F 50.2 °F 53% 29.83 in 10.0 mi SW 8.1 mph 16.1 mph N/A   Overcast
8:15 PM 67.8 °F 50.4 °F 54% 29.84 in 10.0 mi SW 4.6 mph - N/A   Mostly Cloudy
8:35 PM 66.4 °F 50.9 °F 57% 29.84 in 10.0 mi Calm Calm - N/A   Mostly Cloudy
8:55 PM 64.9 °F 51.4 °F 62% 29.84 in 10.0 mi Calm Calm - N/A   Scattered Clouds
9:15 PM 64.2 °F 51.8 °F 64% 29.85 in 10.0 mi Calm Calm - N/A   Clear
9:35 PM 63.9 °F 52.3 °F 66% 29.85 in 10.0 mi SSW 3.5 mph - N/A   Clear
9:55 PM 62.6 °F 52.7 °F 70% 29.86 in 10.0 mi SSW 3.5 mph - N/A   Clear
10:15 PM 61.7 °F 52.7 °F 72% 29.87 in 10.0 mi SSW 3.5 mph - N/A   Clear
10:35 PM 61.2 °F 52.9 °F 74% 29.86 in 10.0 mi South 3.5 mph - N/A   Clear
10:55 PM 60.4 °F 52.9 °F 76% 29.86 in 10.0 mi Calm Calm - N/A   Clear
11:15 PM 59.5 °F 53.1 °F 79% 29.86 in 10.0 mi South 3.5 mph - N/A   Clear
11:35 PM 60.3 °F 53.6 °F 79% 29.86 in 10.0 mi SSW 3.5 mph - N/A   Mostly Cloudy
11:55 PM 60.4 °F 54.0 °F 79% 29.86 in 10.0 mi Calm Calm - N/A   Overcast